This demonstration page uses our WeatherBlox Daily Observations layout. Learn more.

Left ArrowRight Arrow

Hourly Observations for December 8, 2022

Temp ( °F °C ) Dew Point ( °F °C ) Humidity (%) Winds ( mph kmh ) Pressure ( in mb ) Visibility ( mi km ) Precip ( " mm )
12:52 am 00:52 Cloudy 18 -7.8 15 -9.4 88 88 N 7 11 30.37 1029 10 16 0.00 0.00
1:52 am 01:52 Cloudy 19 -7.2 15 -9.4 84 84 N 9 15 30.35 1028 10 16 0.00 0.00
2:52 am 02:52 Partly Cloudy 17 -8.3 14 -10 87 87 NNW 8 13 30.34 1027 10 16 0.00 0.00
3:52 am 03:52 Mostly Clear 17 -8.3 14 -10 87 87 N 7 11 30.33 1027 10 16 0.00 0.00
4:52 am 04:52 Partly Cloudy 17 -8.3 13 -10.6 83 83 N 7 11 30.32 1027 10 16 0.00 0.00
5:33 am 05:33 Mostly Cloudy 17 -8.3 14 -10 87 87 N 8 13 30.36 1028 10 16 0.00 0.00
5:52 am 05:52 Mostly Clear 16 -8.9 14 -10 92 92 NNW 6 9 30.30 1026 10 16 0.00 0.00
6:52 am 06:52 Mostly Clear 15 -9.4 13 -10.6 91 91 NW 6 9 30.29 1026 10 16 0.00 0.00
7:03 am 07:03 Mostly Cloudy 18 -7.8 15 -9.4 88 88 W 5 7 30.35 1028 10 16 0.00 0.00
7:52 am 07:52 Cloudy 20 -6.7 16 -8.9 84 84 N 8 13 30.29 1026 8 13 0.00 0.00
8:15 am 08:15 Cloudy 19 -7.2 16 -8.9 88 88 N 8 13 30.32 1027 8 13 0.00 0.00
8:22 am 08:22 Cloudy 20 -6.7 16 -8.9 84 84 N 8 13 30.32 1027 8 13 0.00 0.00
8:52 am 08:52 Cloudy 21 -6.1 17 -8.3 84 84 N 8 13 30.29 1026 7 11 0.00 0.00
9:52 am 09:52 Cloudy 23 -5 18 -7.8 81 81 N 9 15 30.29 1026 7 11 0.00 0.00
10:52 am 10:52 Cloudy with Haze 26 -3.3 20 -6.7 77 77 NNW 7 11 30.27 1025 5 8 0.00 0.00
11:52 am 11:52 Cloudy with Haze 30 -1.1 24 -4.4 78 78 Calm 30.24 1024 3 5 0.00 0.00
12:02 pm 12:02 Cloudy with Light Freezing Drizzle 31 -0.6 25 -3.9 78 78 Calm 30.26 1025 3 5 0.01 0.13
12:27 pm 12:27 Cloudy with Light Freezing Drizzle 31 -0.6 27 -2.8 85 85 Calm 30.24 1024 3 4 0.01 0.13
12:52 pm 12:52 Cloudy with Light Freezing Drizzle 32 0 29 -1.7 88 88 NW 5 7 30.21 1023 2 2 0.01 0.13
1:52 pm 13:52 Cloudy with Drizzle 34 1.1 33 0.6 96 96 N 3 6 30.16 1021 2 2 0.01 0.13
2:31 pm 14:31 Cloudy with Mist and Fog 36 2.2 34 1.1 92 92 Calm 30.16 1021 2 3 0.01 0.13
2:45 pm 14:45 Cloudy with Mist and Fog 35 1.7 33 0.6 92 92 E 5 7 30.15 1021 2 2 0.01 0.13
2:52 pm 14:52 Cloudy with Light Rain 35 1.7 33 0.6 92 92 E 5 7 30.14 1021 2 2 0.01 0.13
3:52 pm 15:52 Cloudy with Mist and Fog 35 1.7 34 1.1 96 96 NE 3 6 30.14 1021 2 3 0.01 0.25
4:05 pm 16:05 Cloudy with Light Rain 35 1.7 34 1.1 96 96 ENE 3 6 30.15 1021 3 4 0.01 0.13
4:52 pm 16:52 Cloudy with Light Rain 35 1.7 33 0.6 92 92 ENE 5 7 30.13 1020 3 4 0.01 0.25
5:45 pm 17:45 Cloudy with Light Rain 35 1.7 34 1.1 96 96 E 6 9 30.15 1021 2 2 0.01 0.25
5:52 pm 17:52 Cloudy with Light Rain 35 1.7 34 1.1 96 96 E 6 9 30.14 1021 2 2 0.01 0.25
6:52 pm 18:52 Cloudy with Light Rain 35 1.7 34 1.1 96 96 ESE 8 13 30.12 1020 2 3 0.02 0.51
7:52 pm 19:52 Cloudy with Light Rain 36 2.2 34 1.1 92 92 ESE 6 9 30.11 1020 2 3 0.01 0.13
8:52 pm 20:52 Cloudy with Drizzle 35 1.7 34 1.1 96 96 ESE 9 15 30.09 1019 2 3 0.01 0.13
9:52 pm 21:52 Cloudy with Light Rain 35 1.7 35 1.7 100 100 SE 7 11 30.07 1018 2 3 0.01 0.25
10:33 pm 22:33 Cloudy with Mist and Fog 36 2.2 36 2.2 100 100 SSE 5 7 30.06 1018 3 5 0.01 0.25
10:42 pm 22:42 Cloudy with Mist and Fog 36 2.2 36 2.2 100 100 SSW 3 6 30.06 1018 3 4 0.01 0.25
10:52 pm 22:52 Cloudy with Mist and Fog 36 2.2 36 2.2 100 100 SW 3 6 30.04 1017 3 4 0.01 0.25
11:10 pm 23:10 Cloudy with Drizzle 36 2.2 36 2.2 100 100 Calm 30.05 1018 2 3 0.01 0.25
11:32 pm 23:32 Cloudy with Drizzle 36 2.2 36 2.2 100 100 Calm 30.06 1018 2 3 0.02 0.51
11:52 pm 23:52 Cloudy with Drizzle 36 2.2 35 1.7 96 96 SSW 6 9 30.04 1017 2 2 0.02 0.51

Powered by AerisWeather